コルレヴィッチ-ユーリッチ彗星

183P/Korlevic-Juric (2008)

English version
Home page
Total 6,336 html files since Dec. 4, 1995
Updated on April 20, 2008

---------------------------------------------------------------------

・ プロフィール

符号 183P/2006 Y1
検出日 2006年12月16日
検出光度 20.0等
検出者 E. J. Christensen (Mt. Lemmon)

・ 写真集

・ 軌道要素

The following orbital elements are taken from MPC 58540:

Epoch 2008 May 14.0 TT = JDT 2454600.5
T 2008 May  9.1170 TT                                   MPC
q   3.893979             (2000.0)            P               Q
n   0.1030437      Peri.  161.6770      -0.9746770      -0.2212149
a   4.505971       Node     5.8431      +0.1429124      -0.7286588
e   0.135818       Incl.   18.7306      +0.1719908      -0.6481668
P   9.56
From 54 observations 1954-2006, mean residual 0".7.

・ 星図

・ 光度変化

        m1 = 4.0 + 5 logΔ + 20 log r

---------------------------------------------------------------------

軌道要素はMPCのEphemerides and Orbital Elementsに掲載されたものです。
星図は StellaNavigator Ver.2.0 for Windows (アストロアーツ 編著 / アスキー出版局刊) で作成したものです。
光度グラフはComet for Windowsで作成したものです。

---------------------------------------------------------------------

Copyright(C) 1995-2008 Seiichi Yoshida (comet@aerith.net). All rights reserved.